Regional Weather Roundup
Issued by NWS Upton, NY

Current Version | Previous Version | Text Only | Print | Product List | Glossary On
Versions: 1 2 3 4 5 6 7 8 9 10 11 12 13 14 15 16 17 18 19 20 21 22 23 24 25 26 27
000 ASUS41 KOKX 222005 RWROKX REGIONAL WEATHER ROUNDUP NATIONAL WEATHER SERVICE NEW YORK NY 400 PM EDT FRI JUL 22 2016 NOTE: "FAIR" INDICATES FEW OR NO CLOUDS BELOW 12,000 FEET WITH NO SIGNIFICANT WEATHER AND/OR OBSTRUCTIONS TO VISIBILITY. NYZ071-072-176-178-NJZ106-104-222100- NEW YORK CITY METRO AREA CITY SKY/WX TMP DP RH WIND PRES REMARKS Central Park MOSUNNY 92 69 47 VRB5G17 29.86F HX 97 LaGuardia APRT MOSUNNY 97 68 38 SW14G24 29.81F HX 102 Kennedy INTL MOSUNNY 88 70 55 S15 29.85F HX 93 Newark/Liberty MOSUNNY 96 69 41 SW18G24 29.83F HX 102 BRNX BOT. GARD N/A 93 66 40 SW6 29.82F HX 96 Wall St Helipt PTCLDY 93 70 46 W9G24 29.84F HX 99 Teterboro MOSUNNY 97 68 38 W9G22 29.81F HX 102 $$ NYZ177-179-078>081-222100- LONG ISLAND NEW YORK CITY SKY/WX TMP DP RH WIND PRES REMARKS FARMINGDALE SUNNY 89 71 55 SW21G28 29.84F HX 95 ISLIP MOSUNNY 87 72 60 SW13G29 29.85F HX 93 SHIRLEY SUNNY 84 72 67 S17G28 29.86F RIVERHEAD NOT AVBL WESTHAMPTON SUNNY 83 71 67 SW17G26 29.87F SOUTHAMPTON N/A 79 73 83 SW10 29.82F BRIDGEHAMPTON N/A 84 73 70 W5 29.84F HX 91 EAST HAMPTON FAIR 80 72 76 SW21G31 29.85F MONTAUK POINT N/A 80 73 79 SW13G26 29.85F $$ NYZ052-065-067-222100- HUDSON VALLEY CITY SKY/WX TMP DP RH WIND PRES REMARKS WHITE PLAINS MOSUNNY 92 68 45 SW8G18 29.83F HX 96 NEWBURGH MOSUNNY 95 72 46 W12G18 29.84F HX 103 MONTGOMERY PTSUNNY 92 72 51 SW10 29.81F HX 99 POUGHKEEPSIE MOSUNNY 97 67 37 W15G21 29.79F HX 101 ALBANY PTSUNNY 92 67 43 W9G20 29.77F HX 95 $$ NJZ001-105-106-008-010-013-015-019>022-104-222100- NEW JERSEY CITY SKY/WX TMP DP RH WIND PRES REMARKS NEWARK/LIBERTY MOSUNNY 96 69 41 SW18G24 29.83F HX 102 TETERBORO MOSUNNY 97 68 38 W9G22 29.81F HX 102 CALDWELL MOSUNNY 94 70 45 W9G18 29.83F HX 100 MORRISTOWN MOSUNNY 93 70 46 W13G25 29.84F HX 99 SOMERVILLE SUNNY 95 69 42 VRB5 29.83F HX 100 SUSSEX MOSUNNY 94 67 41 SW10G18 29.85F HX 97 ANDOVER N/A 91 69 48 SW8G17 29.86F HX 96 TRENTON MOSUNNY 91 71 51 SW13G21 29.86F HX 97 MILLVILLE SUNNY 91 65 41 SW10G16 29.92F HX 93 ATLANTIC CITY MOSUNNY 90 68 48 SW12 29.92 HX 94 WRIGHTSTOWN MOSUNNY 94 70 44 SW16G25 29.85F HX 100 TOMS RIVER PTSUNNY 93 70 46 W18 29.88F HX 99 BELMAR PTSUNNY 92 70 48 SW15G22 29.88F HX 97 $$ PAZ047>061-062-071-222100- EASTERN PENNSYLVANIA CITY SKY/WX TMP DP RH WIND PRES REMARKS PHILADELPHIA CLOUDY 93 70 46 SW13 29.89F HX 99 ALLENTOWN MOSUNNY 96 68 39 W16G22 29.86F HX 101 SCRANTON SUNNY 93 64 38 SW15G23 29.87F HX 94 $$ CTZ002-004>006-009-010-012-RIZ004-006-007-MAZ004-011-015-222100- SOUTHERN NEW ENGLAND IN CT CITY SKY/WX TMP DP RH WIND PRES REMARKS BRADLEY INTL MOSUNNY 98 65 33 SW15G25 29.77F HX 101 HARTFORD MOSUNNY 98 67 36 W8G18 29.77F HX 102 DANBURY PTSUNNY 91 68 46 W9 29.83F HX 95 WTRBRY/OXFORD PTSUNNY 91 70 49 SW7G16 29.86F HX 97 BRIDGEPORT SUNNY 90 71 53 SW15 29.80F HX 96 MERIDEN MOSUNNY 95 69 42 SW12 29.79F HX 100 NEW HAVEN SUNNY 86 71 60 SW14G22 29.81F HX 91 CHESTER FAIR 88 72 58 SW12G22 29.83F HX 94 GROTON SUNNY 81 71 71 SW15 29.82F WILLIMANTIC NOT AVBL IN RI CITY SKY/WX TMP DP RH WIND PRES REMARKS PROVIDENCE MOSUNNY 90 70 51 SW17G28 29.79F HX 95 BLOCK ISLAND SUNNY 77 71 82 SW18G30 29.85F WESTERLY SUNNY 84 69 60 SW13G22 29.83F IN MA CITY SKY/WX TMP DP RH WIND PRES REMARKS BOSTON MOSUNNY 97 65 34 W20G29 29.72F HX 99 WORCESTER PTSUNNY 90 63 40 SW16G24 29.81F HX 91 WESTFIELD MOSUNNY 96 64 34 W10G22 29.77F HX 98 PROVINCETOWN SUNNY 80 71 74 SW22G30 29.78F NANTUCKET SUNNY 76 70 82 SW20G28 29.86F $$ ANZ330-335-338-340-345-350-353-355-222100- COASTAL MARINE OBSERVATIONS STATION/POSITION TIME SKY/WX TEMP WIND PRES VSBY WAVE AIR SEA DIR/SP/G HT/PER (UTC) (F) (DEG/KT/KT) (MB) (MI) (FT/S) NY HARB ENTRANCE 1850 77 73 200/ 17/ 21 1011.5 3/ 5 20S FIRE ISLAND 1850 76 74 210/ 19/ 23 1012.1 4/ 5 GREAT SOUTH BAY 1930 78 80 220/ 10/ 21 N/A 23 SSW MONTAUK P NOT AVBL 15 E BARNEGAT LI 1922 76 N/A 5/ 5 HUDSON CANYON 1850 78 76 1014.1 4/ 5 KINGS POINT 1900 87 71 1010.5 EXECUTION ROCKS 1900 84 230/ 12/ 17 N/A CENTRAL LI SOUND 1900 78 73 210/ 12/ 14 N/A 1/ 2 EASTERN LI SOUND 1900 74 68 220/ 14/ 17 N/A ROBBINS REEF 1900 91 250/ 15/ 18 1010.2 $$ >>>>>>>>>>>>>>>>>>>>>>>>>>>> KEY <<<<<<<<<<<<<<<<<<<<<<<<<<< > < > SKY/WX - SKY CONDITION/PRESENT WEATHER < > TMP - TEMPERATURE IN FAHRENHEIT < > DP - DEWPOINT IN FAHRENHEIT < > RH - RELATIVE HUMIDITY IN PERCENT < > WIND - DIRECTION AND SPEED IN MPH < > PRES - MEAN SEA LEVEL PRESSURE IN INCHES OF HG < > WCI - WIND CHILL INDEX < > VSB - VISIBILITY IN MILES < > HX - HEAT INDEX < > TC - TEMPERATURE IN CELSIUS < > VRB - VARIABLE WIND DIRECTION < > < >>>>>>>>>>>>>>>>>>>>>>>>>>>> KEY <<<<<<<<<<<<<<<<<<<<<<<<<<<

USA.gov is the U.S. government's official web portal to all federal, state and local government web resources and services.